Voltar ao catálogo

STARLINK-31124

AtivoComunicaçõesVLEO
NORAD 58674·PAYLOAD·🇺🇸 United States

Lançado Dec 29, 2023 de Cape Canaveral Space Force Station

Loading…

Próximas Passagens (próximas 24 horas)

TLE

AtualizadoSource: CelesTrak SupGP

Época: Sep 15, 2026, 02:07 UTC

1 58674C 23211H   26258.08868056  .00033565  00000+0  12156-2 0  2589
2 58674  43.0014  95.4052 0001648 270.4830  88.7577 15.27566061    14

Acompanhe STARLINK-31124 em tempo real com AllMySat

Download on the App Store